Wind_Speed
7 4 5 8 7 6 2 7 3 5 6 2 1 2 8 11 8 5 13 10 25 25 24 23 24 20 18 18 21 23 24 22 21 21 19 17 16 16 14 12 11 10 12 13 13 14 13 14 14
8 6 8 4 7 7 7 4 5 6 4 5 3 5 4 8 8 12 15 19 26 25 24 22 24 23 21 19 21 24 23 22 21 19 18 16 16 14 13 11 10 11 11 12 13 13 14 13 14
8 6 7 5 8 8 3 5 6 5 7 6 5 7 4 5 6 12 15 24 26 24 24 23 25 23 23 21 21 22 22 21 20 18 16 16 14 12 11 11 12 12 12 12 13 15 15 13 14
10 7 5 9 11 2 3 9 6 9 6 3 3 9 8 6 9 7 21 26 25 23 22 23 24 23 23 22 21 21 21 21 19 17 15 14 12 12 12 11 11 11 12 13 14 16 15 15 13
9 4 9 12 14 4 4 3 1 6 7 5 3 8 6 6 10 20 23 25 24 22 21 22 23 23 22 22 22 21 20 19 18 16 14 13 13 14 12 11 10 11 11 13 14 16 16 14 12
7 5 9 13 13 7 6 6 5 5 6 6 4 7 8 12 16 20 23 23 22 22 21 21 21 22 21 20 20 20 20 19 16 15 15 14 14 14 13 10 10 9 11 13 14 15 13 10 7
14 10 15 14 10 11 8 6 9 10 9 9 2 5 9 13 18 21 22 22 22 21 22 21 20 19 19 19 19 19 18 17 17 15 14 14 15 14 14 11 9 10 11 12 13 12 9 6 4
9 8 18 11 12 11 5 8 5 5 5 4 8 6 10 19 22 22 20 21 21 21 20 20 21 20 18 16 18 18 18 17 16 16 14 15 15 14 10 8 8 9 11 12 11 8 5 3 2
8 8 12 16 12 9 6 9 6 1 6 8 9 1 14 29 27 24 22 21 21 20 20 21 21 21 19 17 15 17 16 16 16 14 15 14 11 11 8 8 8 9 9 10 10 8 5 4 4
13 13 15 7 4 7 9 5 1 2 7 9 8 13 26 29 28 26 24 23 21 20 20 21 20 21 20 17 16 15 14 13 13 12 13 12 10 10 9 9 11 9 9 9 8 7 7 5 7
12 18 10 5 10 5 7 6 1 3 8 9 15 18 22 25 24 23 22 21 21 21 17 19 19 19 19 17 17 16 15 14 13 13 13 11 10 9 9 9 10 8 8 7 7 7 6 7 4
12 14 13 10 8 9 11 2 4 6 2 2 10 18 20 23 20 21 20 19 21 21 19 16 18 19 18 16 16 14 14 14 14 14 14 12 11 10 10 10 11 10 10 8 8 8 7 6 6
18 15 11 16 12 12 9 11 9 9 6 5 15 19 20 19 21 20 19 18 18 20 20 17 16 20 18 15 15 13 12 13 13 13 14 12 11 10 10 10 10 10 10 9 9 9 8 8 8
7 17 19 11 16 18 16 15 7 6 5 11 19 21 19 19 21 20 19 18 18 17 19 18 17 18 17 16 14 13 12 12 12 12 12 13 10 9 9 9 10 10 10 10 10 10 9 10 10
16 11 12 19 16 11 15 16 16 9 9 15 19 18 19 18 21 19 19 18 18 17 17 18 18 17 18 16 15 14 12 11 11 12 12 12 11 10 9 9 9 10 10 10 10 10 10 10 11
12 16 13 17 18 15 14 18 18 8 13 15 19 18 18 17 18 18 18 17 17 17 18 17 19 18 21 16 15 14 13 12 11 12 12 13 11 10 9 10 9 9 9 9 10 10 12 12 12
10 10 15 7 17 12 17 17 15 11 13 16 17 19 18 17 15 14 16 16 17 18 18 18 18 18 18 16 14 13 12 13 12 11 12 12 12 12 10 10 10 9 10 10 11 11 10 12 13
13 12 12 11 14 14 18 16 15 13 14 15 17 18 17 17 13 13 13 13 16 17 17 18 18 17 18 17 15 13 12 12 12 12 12 11 12 13 12 11 10 10 11 12 12 11 12 8 11
10 15 13 9 12 18 20 13 14 13 13 17 17 17 16 13 10 11 10 10 12 15 17 18 19 20 20 19 18 16 15 13 12 12 11 10 9 10 10 11 11 10 11 10 12 13 7 5 2
10 12 12 8 7 11 15 14 10 9 11 13 15 15 14 11 12 11 9 8 10 13 15 16 18 19 20 18 16 14 13 13 12 11 9 8 7 5 5 9 11 9 6 7 7 9 9 8 10
14 13 12 8 9 8 14 13 12 10 8 8 11 11 11 12 12 10 10 9 8 10 12 13 16 18 19 17 16 13 11 9 12 10 7 8 6 4 7 6 8 10 13 19 26 18 17 16 17
16 17 9 8 13 13 19 12 17 15 14 14 14 14 12 12 10 10 11 10 9 8 9 10 10 14 17 18 17 17 15 12 10 9 9 8 6 6 8 7 9 10 10 11 14 14 16 15 11
12 4 13 11 14 5 16 14 21 19 16 18 18 17 15 13 12 10 10 10 9 10 9 9 10 11 13 16 16 17 16 7 13 10 11 8 7 6 5 5 8 9 8 9 9 8 10 11 13
9 8 9 9 8 11 13 17 14 17 21 20 19 18 17 16 14 11 12 11 10 10 10 10 10 9 9 11 12 15 13 12 12 14 12 9 7 5 4 4 5 5 5 6 7 7 9 9 10
16 15 9 10 8 2 9 8 7 8 19 18 20 18 17 15 14 13 12 13 12 12 11 11 10 9 9 9 9 11 12 12 13 12 9 8 6 5 3 4 4 3 2 1 1 1 4 6 7
21 18 9 14 11 7 6 7 6 5 2 8 6 17 15 15 13 12 12 11 12 11 11 10 11 10 10 10 10 10 11 10 10 9 9 8 8 7 7 6 5 4 3 2 1 1 1 2 3
13 11 5 3 4 3 8 3 8 7 7 7 7 9 14 15 14 13 13 12 12 12 10 10 10 10 10 10 10 10 10 11 11 12 11 10 9 8 8 7 6 5 4 3 2 1 1 1 2
11 11 7 7 8 12 8 7 6 10 9 5 4 7 10 13 13 12 13 14 13 11 10 9 10 10 10 10 9 9 10 10 11 11 11 11 10 9 9 7 6 5 4 2 2 1 1 1 3
6 9 7 5 4 6 8 9 6 8 5 4 3 3 6 10 13 13 15 15 13 11 11 10 9 10 10 11 10 10 10 10 11 11 11 11 11 11 9 8 7 6 4 3 2 1 1 1 2
4 10 16 10 12 9 8 4 4 6 6 6 5 3 2 7 11 12 15 15 13 11 11 11 10 10 10 9 10 9 9 10 11 11 12 12 11 11 10 8 7 5 4 3 2 0 1 3 4
Wind_Direction
195 222 249 249 252 233 199 142 11 137 166 86 130 332 42 28 6 37 140 152 150 150 155 160 165 165 158 156 162 165 164 162 160 158 154 149 146 141 137 132 131 129 130 129 125 118 115 116 116
204 221 232 270 257 232 143 100 169 84 78 112 132 146 130 73 47 114 138 148 152 149 154 159 165 167 165 163 161 163 165 165 162 159 154 152 149 144 139 135 131 128 131 132 129 122 118 118 115
185 217 254 241 249 250 98 133 126 128 129 127 115 43 52 58 92 133 128 152 151 152 154 162 164 168 167 165 164 166 168 166 163 161 158 153 149 144 140 136 128 125 125 124 125 125 123 120 117
175 197 233 247 239 198 93 102 113 152 138 93 115 90 103 51 134 128 142 152 153 153 156 167 165 167 166 166 167 168 167 166 167 164 160 157 152 146 142 138 132 128 127 130 132 129 126 120 119
203 245 238 238 242 155 205 220 259 168 139 152 209 112 89 96 114 135 144 152 157 155 156 161 167 169 167 167 169 171 171 169 165 162 160 153 146 141 137 133 134 135 134 136 135 132 128 120 113
197 259 234 232 224 196 210 208 175 186 150 118 195 136 96 126 133 143 150 156 159 155 158 163 165 168 168 168 170 171 171 169 167 165 159 153 147 141 132 128 130 139 139 141 139 136 132 125 118
242 216 241 254 250 193 216 146 203 202 208 188 240 182 118 148 142 146 154 155 158 159 156 164 165 166 166 169 169 169 169 168 165 161 157 153 149 148 145 148 143 142 145 147 146 145 143 141 132
241 260 249 240 236 227 144 179 143 204 213 84 190 180 163 148 150 147 152 155 158 162 159 164 170 169 170 170 170 168 169 167 163 161 158 158 155 154 154 153 155 151 154 157 158 161 169 182 210
232 239 240 230 229 222 150 191 154 117 222 192 187 81 122 148 150 149 154 157 161 167 164 172 173 174 174 171 173 169 169 168 167 164 165 157 162 162 171 173 171 162 164 171 175 183 201 231 264
212 228 240 265 221 235 164 220 177 277 180 170 124 114 134 149 154 154 162 160 163 172 170 174 176 174 175 172 174 172 173 174 172 172 174 172 173 175 181 180 181 177 175 184 195 209 223 249 239
216 240 236 251 256 269 185 212 332 299 228 201 177 151 152 158 159 158 165 162 168 170 176 175 178 177 177 177 176 177 178 180 184 183 179 187 184 190 186 185 187 188 197 193 204 224 231 235 266
245 225 251 241 207 233 229 347 252 268 250 184 178 163 164 162 161 162 162 162 166 172 174 179 177 181 185 182 183 183 184 183 187 189 187 190 191 193 198 199 194 196 198 209 217 220 235 248 258
222 247 228 236 254 233 247 251 271 260 250 163 148 168 169 166 156 158 157 161 165 171 174 183 181 185 186 188 190 191 192 190 190 189 195 196 198 197 201 202 205 206 209 217 226 236 244 251 256
204 235 243 239 230 239 242 243 236 191 202 173 168 169 169 162 156 152 157 162 168 171 173 181 184 186 190 195 195 196 196 194 196 197 200 204 205 203 206 211 214 217 221 227 236 243 254 261 266
240 246 220 231 227 223 220 236 224 239 179 170 175 166 165 159 154 157 161 166 171 173 172 180 186 190 195 198 200 203 203 200 202 204 204 208 213 217 220 223 225 229 233 241 242 251 254 264 267
219 232 243 200 210 217 213 206 204 178 175 174 169 161 161 157 158 155 161 169 174 178 180 179 187 193 194 203 204 207 210 210 212 209 209 214 219 225 229 234 238 241 244 243 250 258 264 264 267
200 223 216 158 191 188 205 212 145 177 180 166 166 159 160 155 157 158 166 173 177 184 184 186 187 192 195 202 205 207 211 213 214 216 214 216 221 227 235 239 245 252 254 253 257 257 261 272 270
192 222 198 215 181 202 196 219 153 177 181 171 164 159 160 159 154 162 170 180 184 188 190 192 192 192 193 198 205 208 210 211 212 215 219 218 225 231 238 242 250 260 266 266 266 275 280 284 293
209 210 194 163 171 193 194 190 172 173 185 171 167 165 167 154 152 155 158 175 189 192 196 198 195 193 191 196 198 202 204 206 212 215 214 219 226 231 238 242 245 251 259 274 284 280 275 225 253
231 208 195 113 196 228 189 176 164 187 193 177 174 175 168 160 164 148 147 163 181 189 198 199 200 198 198 198 198 202 202 199 199 198 199 207 212 211 217 238 234 234 237 274 280 279 262 224 230
220 219 198 207 165 232 187 173 190 190 192 201 188 183 178 182 169 150 153 157 164 178 189 197 201 199 198 200 196 194 189 191 200 200 180 180 181 182 190 202 202 225 242 258 267 264 255 256 262
220 215 237 195 193 204 204 201 192 181 197 198 196 196 190 192 173 160 156 157 163 170 177 182 183 190 196 198 200 201 202 202 207 196 193 220 218 230 235 224 228 234 233 237 236 239 249 246 233
234 190 214 211 214 166 193 241 188 178 204 202 203 195 191 194 188 179 171 159 156 158 162 176 177 183 195 200 207 207 222 194 197 194 205 200 201 210 209 209 215 216 210 204 214 227 246 251 254
220 193 198 197 210 218 168 217 157 189 208 204 197 197 191 191 185 182 175 160 163 162 153 153 163 168 179 185 195 202 194 181 166 173 170 177 182 174 176 174 182 186 203 224 233 240 244 247 258
199 185 170 197 200 237 138 214 46 172 197 204 195 192 194 190 186 187 182 179 177 171 157 148 152 155 165 166 163 165 170 167 165 168 168 161 161 162 144 140 137 141 134 143 170 234 259 260 262
200 198 198 205 203 148 149 228 110 76 56 202 205 190 193 189 189 193 189 187 178 174 163 158 159 156 158 159 158 163 163 169 168 168 170 167 163 152 134 129 122 115 108 107 126 209 265 289 285
168 214 326 307 33 274 151 111 141 143 142 168 190 206 198 197 198 196 187 183 176 172 169 163 162 154 154 148 148 152 155 157 158 151 149 151 148 149 138 134 126 116 108 102 121 164 140 295 301
205 166 192 217 217 236 162 177 118 159 162 135 161 190 202 196 195 188 194 185 181 173 166 164 166 161 156 153 155 158 156 155 155 153 155 155 157 151 146 142 139 130 119 104 112 136 359 323 297
166 190 231 298 306 260 218 195 87 91 84 75 79 138 190 196 194 193 192 186 183 178 177 172 175 171 170 168 168 171 170 168 165 163 159 159 157 156 153 152 144 134 128 115 109 110 17 318 312
320 242 202 226 191 229 294 100 93 88 70 55 52 88 160 186 192 190 193 183 184 188 184 188 190 189 187 187 181 185 186 179 175 170 167 166 166 163 162 159 156 153 153 150 147 122 348 336 327
Height
787 789 788 783 788 773 780 776 764 770 768 762 761 764 767 769 779 795 793 796 799 805 813 818 820 823 825 827 829 832 834 837 839 840 842 844 846 848 849 850 852 853 854 855 856 856 857 857 858
788 788 784 771 786 785 776 765 773 765 766 760 762 763 767 782 779 789 794 798 802 807 814 819 822 825 827 830 832 834 836 838 841 843 845 846 848 849 850 851 853 854 856 857 857 858 859 861 860
788 787 776 773 772 777 775 767 769 765 759 763 764 759 768 784 786 789 792 799 804 810 815 821 823 827 829 832 834 837 839 840 842 845 847 848 849 851 852 853 854 856 858 859 860 859 860 862 863
786 782 776 783 773 762 765 765 761 763 761 760 761 773 778 788 787 790 796 801 805 810 817 821 825 829 831 834 837 839 840 842 844 846 848 849 850 852 854 855 856 858 859 861 861 861 862 863 865
784 773 779 778 767 760 760 758 761 762 762 763 761 774 781 789 790 793 798 802 807 811 817 824 827 830 833 836 839 841 843 845 846 848 850 851 853 854 856 858 859 859 861 862 863 864 864 866 867
780 770 781 777 763 756 757 755 760 766 763 764 766 765 780 789 791 795 800 803 808 812 819 826 829 832 835 838 841 842 844 846 848 849 851 853 855 857 859 859 861 862 863 864 865 866 867 867 868
776 775 773 762 757 758 758 753 759 758 761 766 757 768 781 787 792 796 800 804 809 814 820 827 830 834 837 839 841 844 846 847 849 851 852 854 856 859 860 861 863 863 865 866 867 868 869 870 870
771 770 770 763 764 765 751 756 754 758 760 755 756 769 780 783 791 796 801 805 810 815 820 827 830 834 838 842 843 845 847 849 850 852 853 855 857 860 862 863 864 865 866 867 868 870 871 871 872
772 779 770 763 763 756 749 754 753 753 755 756 757 758 762 780 789 794 800 805 809 815 819 826 828 833 837 841 845 847 849 850 852 853 855 857 860 862 863 865 865 866 867 868 869 870 871 872 872
775 773 762 744 748 751 750 753 756 759 756 760 768 768 774 781 785 789 795 801 808 813 818 822 826 830 834 840 845 848 850 852 854 855 857 858 859 861 862 865 866 867 868 869 870 871 871 871 870
766 768 752 759 755 752 752 757 754 759 760 754 764 772 775 779 783 787 793 799 807 814 819 821 826 831 833 839 843 846 848 851 854 856 857 858 859 862 863 865 867 868 868 870 870 871 871 869 870
772 759 759 759 756 759 759 754 758 756 750 746 753 769 775 774 779 786 792 799 806 813 820 823 827 832 835 838 842 844 846 849 852 854 857 858 860 861 862 862 864 866 867 867 869 868 869 870 871
769 760 760 760 758 756 755 761 758 754 748 753 756 768 772 775 779 786 792 800 806 812 820 825 829 833 835 839 841 844 845 848 850 853 856 857 858 860 861 862 863 864 865 866 867 868 869 869 869
753 760 759 754 754 755 760 756 755 746 749 752 757 763 769 773 779 787 794 800 806 811 818 825 829 832 835 839 841 843 845 848 850 852 854 856 858 859 860 862 863 863 864 865 866 866 868 868 868
754 766 756 755 752 754 753 763 756 742 748 752 756 760 767 773 781 787 794 800 807 812 816 822 827 831 834 837 840 842 844 846 849 850 853 855 857 858 860 861 862 862 864 864 865 866 867 867 867
763 762 764 742 747 748 754 762 742 742 747 754 754 759 767 775 781 787 794 800 806 811 815 820 824 829 832 835 838 840 842 844 847 848 850 853 856 858 859 860 861 861 863 863 864 865 865 865 865
765 769 761 752 737 745 753 744 739 741 746 753 757 761 766 774 781 788 794 799 804 809 814 818 822 826 831 834 837 839 840 842 844 846 848 851 853 856 858 858 859 861 862 862 863 863 864 864 864
766 770 759 752 745 745 751 738 740 743 745 752 755 760 768 776 785 791 793 797 802 807 811 815 819 823 827 831 834 837 838 840 841 843 845 848 850 853 855 856 858 860 860 861 861 862 863 865 866
742 750 746 735 737 742 743 739 742 743 744 749 754 761 767 776 790 793 795 798 801 805 809 812 816 819 823 826 829 832 834 836 839 841 843 846 848 850 852 853 855 857 859 861 862 862 862 863 863
747 746 745 746 741 739 738 744 745 749 746 747 754 761 768 782 786 792 795 797 799 803 806 810 813 817 820 823 825 828 830 833 835 838 841 843 845 847 848 851 852 853 856 857 859 862 861 859 858
746 745 739 743 745 741 744 758 762 755 751 751 754 762 768 777 782 790 793 796 799 801 804 807 810 814 817 820 824 827 829 831 834 836 838 839 841 842 842 846 848 849 849 848 853 854 859 856 853
748 730 733 742 750 756 738 762 756 754 762 764 764 767 771 776 780 785 791 795 798 801 803 806 808 812 815 818 820 822 823 825 829 833 835 836 838 838 841 843 845 846 845 846 850 852 855 854 852
737 723 732 735 741 742 749 752 733 742 758 757 758 764 771 776 780 784 787 792 796 801 803 805 807 810 814 815 818 820 822 824 826 830 832 834 835 837 839 841 842 843 844 846 848 850 851 851 851
722 734 734 733 735 758 735 744 744 743 742 741 747 753 762 767 776 782 788 793 797 800 802 805 807 809 811 814 816 819 821 823 826 828 830 833 835 837 838 840 841 842 843 845 846 847 847 847 848
731 735 755 762 756 749 737 748 734 723 727 729 736 745 754 761 771 779 786 790 795 799 801 804 807 809 811 812 815 817 820 822 824 827 831 833 836 838 839 841 842 843 844 844 845 845 844 845 845
730 727 732 768 754 741 745 756 734 728 727 723 728 735 748 759 768 778 783 789 793 798 801 804 807 810 812 813 815 817 819 822 824 827 830 833 835 838 839 840 841 842 843 843 844 844 845 844 844
726 738 719 738 738 745 737 742 735 735 740 742 743 742 748 758 768 778 786 789 793 796 801 803 807 810 813 814 816 818 820 822 824 826 829 832 835 836 838 839 841 841 842 842 843 844 844 843 843
713 710 743 736 759 768 747 750 739 744 741 741 745 748 750 757 768 779 786 790 793 796 800 804 808 810 812 814 817 819 821 822 824 826 828 831 833 835 837 839 840 841 842 842 842 843 842 842 842
728 727 727 728 735 747 753 747 742 743 748 749 746 749 752 757 766 775 781 786 791 795 799 802 806 809 812 814 817 820 822 823 825 826 828 830 833 835 837 839 840 840 841 841 842 842 842 841 841
712 716 721 739 751 739 746 753 747 750 751 754 752 754 753 758 764 772 778 783 789 793 796 801 805 808 811 814 816 819 822 823 825 826 828 830 833 834 835 837 838 838 839 840 841 840 840 839 839